Location: Lafig�re
(44.4503°N, 4.0357°E)
Time: 02:05:16
(UTC+00:00)

Transit 4A - Pass Details

Date: 26 January 2021
Orbit: 866 x 979 km, 66.8° (Epoch: 24 February)

Event Time Altitude Azimuth Distance (km) Brightness Sun altitude
Rises 21:34:06 0° 293° (WNW) 3,678 11.6 -50.6°
Enters shadow 21:38:16 - 320° (NW) 2,839 10.9 -51.2°
Reaches altitude 10° 21:39:28 10° 330° (NNW) 2,717 - -51.4°
Maximum altitude 21:40:49 11° 343° (NNW) 2,664 - -51.6°
Drops below altitude 10° 21:42:10 10° 355° (N) 2,707 - -51.8°
Sets 21:47:29 0° 33° (NNE) 3,626 - -52.6°
